Flag for Namibia Weather past 2 weeks in Windhoek, Namibia

Now
59 °F

Cool.


Feels Like: 58 °F
Forecast: 60 / 81 °F
Wind: 8 mph from East

Location: Windhoek

Current Time: Mar 3, 2015 at 6:08:57 AM

Latest Report: Mar 3, 2015 at 5:00 AM


Visibility: N/A

Pressure: 30.15 "Hg

Humidity: 63%

Dew point: 46 °F

Location of WindhoekLocation

Historic Weather in Windhoek — Graph

°F

Windhoek temperature yesterday

Maximum temperature yesterday: 86 °F (at 2:00 PM)
Minimum temperature yesterday: 59 °F (at 7:00 AM)
Average temperature yesterday: 71 °F

Past Weeks' High & Low Weather Summary

 TemperatureHumidityPressure
High93 °F (Feb 16, 5:00 PM)82% (Feb 26, 5:00 AM)30.27 "Hg (Feb 26, 5:00 AM)
Low57 °F (Feb 26, 7:00 AM)6% (Feb 27, 4:00 PM)29.95 "Hg (Feb 25, 5:00 PM)
Average76 °F30%30.11 "Hg
* Reported Midnight between Feb 15 and Feb 16 — Midnight between Mar 2 and Mar 3, Windhoek, Weather by CustomWeather, © 2015

Note: Actual official high and low records may vary slightly from our data, if they occured in-between our weather recording intervals... More about our weather records

Advertising

Windhoek weather history for previous 24 hours

 ConditionsComfort  
Time TempWeatherWind HumidityBarometerVisibility
12:00 AM
Tue, Mar 3
66 °FMild.6 mph49%30.18 "HgN/A
11:00 PM
Mon, Mar 2
66 °FMild.9 mph52%30.18 "HgN/A
10:00 PM68 °FMild.7 mph49%30.18 "HgN/A
9:00 PM66 °FMild.6 mph56%30.15 "HgN/A
7:00 PM72 °FMild.8 mph38%30.12 "HgN/A
6:00 PM70 °FSprinkles. Scattered clouds.13 mph50%30.12 "HgN/A
4:00 PM81 °FPleasantly warm.9 mph23%30.07 "HgN/A
3:00 PM84 °FScattered showers. Scattered clouds.9 mph19%30.07 "HgN/A
2:00 PM86 °FScattered clouds.10 mph20%30.09 "HgN/A
1:00 PM82 °FPartly sunny.13 mph20%30.12 "HgN/A
12:00 PM84 °FPartly sunny.14 mph20%30.15 "HgN/A
11:00 AM82 °FPassing clouds.10 mph23%30.15 "HgN/A
10:00 AM79 °FSunny.3 mph28%30.12 "Hg10 mi
9:00 AM73 °FMild.2 mph33%30.12 "HgN/A
8:00 AM64 °FSunny.5 mph49%30.12 "Hg10 mi
7:00 AM59 °FSunny.3 mph55%30.09 "Hg10 mi
6:00 AM61 °FClear.6 mph52%30.07 "Hg10 mi
Weather by CustomWeather, © 2015

See weather overviewHow to use our weather pages